Theta_e
296 290 288 289 290 291 289 288 288 289 292 292 290 290 292 294 293 291 291 293 295 296 296 297 299 299 302 310 321 326 328 327 327 325 328 328 328 329 330 330 330 330 329 328
292 288 292 295 293 292 289 287 285 288 291 290 290 291 292 293 293 294 294 293 294 294 297 299 299 299 298 299 302 316 327 327 327 327 327 330 329 329 330 330 330 330 329 328
289 292 296 294 291 290 288 287 286 287 289 288 286 285 289 292 293 294 294 294 295 295 297 298 300 301 300 298 299 303 316 327 327 327 329 327 326 326 326 327 328 329 330 328
291 295 293 291 291 291 286 291 290 288 286 281 284 278 285 288 290 292 293 293 294 296 298 300 300 301 301 304 299 300 309 322 328 330 328 326 324 322 325 325 327 327 328 327
288 290 290 288 290 291 289 292 290 288 286 282 282 279 282 287 287 290 292 293 294 296 297 298 300 302 303 305 299 303 309 313 319 327 327 324 322 322 321 319 319 319 320 317
290 293 293 292 292 292 293 291 290 288 285 278 282 280 279 284 289 289 292 294 295 296 297 298 300 301 300 301 302 304 306 307 313 315 318 318 316 315 313 311 310 307 309 306
288 289 291 293 290 291 291 285 278 278 277 276 280 278 282 287 290 292 293 293 294 295 295 296 297 297 297 297 298 300 302 300 301 304 305 306 304 303 302 301 300 300 299 299
282 281 288 292 290 287 286 285 278 274 274 277 279 279 284 288 291 294 295 294 294 294 296 296 296 296 296 296 296 297 298 297 298 299 299 299 299 298 298 297 297 296 296 296
284 284 290 291 292 292 286 283 287 280 272 275 278 280 286 290 291 292 293 294 293 294 295 295 296 295 295 295 295 295 296 296 296 296 297 297 296 295 294 294 294 294 294 295
288 282 289 289 291 290 287 290 282 280 272 272 276 277 280 285 289 291 292 292 293 294 294 295 295 295 295 295 294 294 295 295 294 295 295 294 293 293 292 292 291 291 292 292
290 287 285 288 286 286 285 283 284 285 281 275 273 278 285 288 291 291 293 294 294 294 294 294 295 295 294 293 293 292 293 293 292 293 292 291 291 291 291 290 290 290 290 290
291 287 281 283 288 289 287 286 286 281 278 279 279 280 290 288 292 294 294 295 295 295 294 294 294 293 292 291 291 291 291 292 291 291 290 290 290 289 288 288 288 288 288 288
292 285 279 282 285 287 286 287 287 286 281 277 276 279 289 287 291 294 293 295 295 295 294 294 293 292 291 291 290 290 290 290 290 290 289 288 287 287 287 287 287 287 286 286
295 288 284 280 283 286 283 285 286 286 280 279 279 280 285 287 290 292 293 295 295 295 295 294 293 293 292 291 289 289 289 289 289 288 287 286 286 286 286 286 285 285 285 285
291 283 286 286 287 287 286 286 285 284 287 283 285 283 286 288 291 293 295 295 294 294 294 294 294 293 291 289 289 288 288 288 288 286 286 286 285 285 284 283 283 283 283 284
291 281 285 282 287 286 283 285 287 288 287 285 284 284 289 290 292 293 295 295 294 294 295 295 294 292 290 289 288 288 288 287 287 285 284 284 283 282 282 282 282 282 282 281
289 286 282 278 282 283 280 285 285 287 287 288 284 289 288 289 292 294 295 296 296 296 295 295 293 292 291 289 289 287 286 286 284 283 282 282 282 281 281 280 280 280 280 280
287 288 284 283 282 275 285 289 289 288 289 290 289 288 291 291 294 296 298 297 297 297 296 295 293 292 290 288 287 287 286 284 283 282 281 281 280 279 279 278 278 278 278 278
290 286 281 279 275 282 284 286 285 284 287 289 290 291 290 290 291 291 297 299 298 298 298 296 294 291 287 287 287 285 283 283 282 281 280 279 279 276 276 273 275 276 276 275
289 289 283 279 275 274 283 288 289 291 283 290 292 290 289 290 287 291 295 297 297 297 296 292 289 288 287 286 285 283 282 281 280 280 279 278 277 274 272 274 273 274 272 276
284 284 281 275 273 278 284 286 290 281 284 288 291 293 290 291 295 293 294 293 294 293 290 289 288 287 286 285 283 281 280 279 279 278 277 275 274 272 271 270 271 268 267 271
283 282 282 278 273 277 285 286 286 289 285 286 289 290 291 290 290 290 292 290 289 287 287 287 286 284 283 283 282 280 279 278 276 274 273 271 268 270 270 263 263 264 262 263
282 285 284 286 284 285 284 285 285 286 286 284 288 289 290 289 287 286 285 286 286 286 286 286 284 281 280 280 281 279 277 275 273 270 267 266 265 266 266 262 263 264 262 262
282 283 282 284 283 283 283 284 285 286 285 287 289 287 288 287 286 284 284 284 285 284 283 282 280 279 278 277 278 277 275 272 268 266 266 265 264 264 263 268 268 262 262 262
284 285 283 283 285 282 284 283 286 286 287 287 288 286 287 286 284 284 284 284 284 283 281 281 281 278 276 274 273 272 270 268 265 265 266 265 264 262 264 266 265 267 268 267
283 285 284 283 286 287 286 286 287 286 286 286 286 284 284 284 284 283 282 282 282 280 279 279 278 277 275 273 271 269 266 266 266 265 266 265 264 263 264 264 264 271 274 276
Wind_Speed
4 4 14 8 8 5 6 6 7 1 4 4 8 6 8 7 5 7 7 9 9 8 4 4 5 6 6 5 5 9 10 10 8 4 4 3 3 3 2 3 5 5 4 5
4 13 7 8 8 9 4 7 4 2 2 3 5 8 5 7 6 6 9 7 8 7 6 4 5 6 4 1 2 3 8 12 8 6 4 3 3 2 2 3 4 5 5 5
8 5 8 12 7 10 6 7 6 8 3 2 5 6 5 5 3 3 5 6 5 9 8 5 6 5 4 3 2 1 5 10 9 9 5 4 3 2 2 2 2 4 5 6
8 12 17 6 10 9 8 6 7 12 6 5 4 5 7 7 6 5 5 6 6 7 6 6 5 5 3 2 2 2 4 8 9 11 6 8 4 3 3 2 1 2 3 3
6 10 8 6 7 8 6 8 9 5 5 5 3 3 8 8 5 9 8 7 7 7 8 8 7 5 3 3 2 4 7 8 6 7 6 6 6 3 3 4 5 5 6 10
3 1 4 6 2 7 8 8 8 5 4 1 5 7 6 7 13 6 6 8 8 7 7 6 6 6 5 5 6 6 9 8 9 9 9 8 9 6 5 6 6 5 5 6
3 2 2 3 7 5 8 7 3 2 1 7 2 4 9 7 7 10 13 10 9 8 8 7 7 6 6 7 6 8 12 9 9 12 11 10 10 11 9 7 5 6 4 4
6 4 7 4 7 9 5 8 7 7 5 4 2 7 6 3 2 8 12 11 10 8 8 9 7 6 7 7 7 9 11 11 11 12 11 10 10 7 6 7 5 4 4 4
8 3 2 1 2 10 6 4 5 9 3 4 5 5 5 3 5 8 11 10 9 9 8 9 7 7 7 7 7 8 11 11 11 11 11 10 9 9 7 7 6 4 4 4
6 6 2 1 1 1 6 9 3 3 6 4 4 4 7 8 13 10 12 11 10 9 9 8 7 7 6 7 7 8 8 10 9 10 9 8 8 7 7 6 7 7 5 6
3 5 1 3 5 9 3 3 2 6 5 7 2 8 8 18 17 18 15 14 12 12 11 9 8 6 7 7 7 7 8 10 9 9 8 9 7 7 7 7 6 6 5 6
3 6 4 6 1 2 1 7 6 6 6 1 4 8 2 6 14 17 15 13 12 12 11 10 9 8 8 8 7 7 7 10 8 8 9 9 7 6 7 6 5 5 5 5
8 2 5 4 3 2 5 4 5 5 5 7 7 8 1 1 9 13 16 14 14 14 13 12 11 11 9 8 7 6 6 7 7 8 8 7 7 6 6 6 5 5 4 4
7 5 8 9 8 8 8 9 7 6 4 5 8 4 5 7 12 11 12 16 16 16 16 13 11 12 11 10 10 8 7 7 7 7 7 7 6 6 5 5 4 4 4 5
6 7 5 2 4 5 8 9 9 8 19 10 16 9 6 11 14 20 16 16 17 17 16 15 14 12 12 11 10 8 7 8 8 7 7 6 6 5 5 5 5 5 6 5
2 2 3 1 3 2 3 8 11 20 12 9 2 7 8 9 7 11 17 18 19 20 19 18 16 15 14 14 12 10 9 8 7 7 7 6 5 5 5 6 6 6 6 6
10 6 5 4 1 4 3 13 12 11 8 19 14 23 7 5 14 17 17 21 24 22 21 20 19 17 15 14 13 12 9 8 7 7 6 6 5 6 6 5 5 5 5 5
9 13 3 10 4 4 10 9 11 16 12 18 11 5 10 9 14 17 20 24 21 19 20 19 18 16 14 11 11 11 9 8 7 7 6 5 5 5 5 5 5 5 4 5
3 6 4 7 7 7 9 9 11 11 21 10 18 17 7 3 4 7 17 20 23 26 22 18 17 17 14 15 13 11 9 8 7 7 6 5 5 4 4 4 3 2 3 3
4 3 4 3 7 12 7 8 6 8 20 13 19 12 10 8 7 14 17 16 13 14 15 17 17 17 17 13 13 12 10 8 7 6 6 5 5 4 2 1 2 1 2 4
4 2 11 5 5 11 6 5 6 10 13 8 14 18 14 13 18 4 11 8 10 13 16 16 18 18 16 13 12 10 9 7 7 7 6 5 4 2 1 1 2 2 3 3
12 11 6 3 2 18 6 4 17 5 2 0 2 4 10 5 4 5 7 13 18 19 20 19 18 15 13 12 12 11 9 8 7 7 6 6 3 2 2 0 3 3 3 3
6 7 9 12 11 1 1 3 2 2 2 2 3 3 5 6 4 6 8 11 13 18 16 14 16 15 10 8 9 11 8 8 7 6 6 4 3 1 1 1 3 3 3 2
3 0 3 4 2 3 2 2 3 2 3 4 4 1 5 6 7 6 8 10 12 12 14 12 16 15 12 6 6 6 9 7 7 7 5 4 4 2 1 1 1 1 2 2
1 3 3 3 4 3 3 3 4 2 2 3 3 2 5 7 7 9 9 11 11 12 10 13 15 14 12 8 7 7 8 9 7 5 5 4 3 2 1 1 2 2 4 4
4 5 3 2 1 4 3 5 3 1 2 4 4 2 2 4 9 7 7 7 10 12 11 11 11 11 11 9 9 7 5 6 7 5 4 3 2 1 0 1 3 6 8 11
Wind_Direction
217 163 193 180 147 193 147 199 168 308 183 132 192 185 211 208 205 171 181 165 169 156 140 102 77 76 78 81 171 156 154 162 150 146 142 171 184 172 180 191 200 201 196 201
202 216 179 165 186 219 171 194 164 4 41 123 177 230 220 194 216 187 170 169 161 150 134 93 81 55 35 83 75 126 170 163 161 155 156 146 152 164 167 187 209 203 196 201
202 217 179 188 185 203 186 182 187 161 143 1 108 313 218 208 143 130 113 134 146 163 146 118 82 51 43 35 16 213 160 172 166 162 143 96 95 81 128 200 215 217 209 208
220 235 186 175 208 166 213 174 144 136 119 199 145 254 247 199 187 197 191 157 147 118 110 105 95 69 50 312 245 103 123 153 172 161 155 142 154 145 176 128 69 308 261 254
205 171 184 177 189 164 193 134 144 131 120 112 189 105 257 138 195 219 209 193 174 145 135 128 123 108 39 33 97 108 96 86 124 143 144 140 145 143 92 100 84 57 58 50
176 221 145 186 89 151 138 90 54 62 76 292 217 163 261 190 203 164 180 166 146 138 118 114 113 101 77 44 67 77 80 66 74 82 88 101 104 99 83 67 69 51 54 40
105 35 301 173 86 3 114 104 58 34 334 218 1 183 241 223 215 180 170 159 153 144 131 128 119 107 86 76 70 78 86 69 72 80 78 83 88 82 80 77 74 61 43 32
148 194 188 195 168 171 175 150 152 170 187 225 332 225 249 293 283 145 148 151 150 151 145 136 129 115 101 86 75 84 90 86 78 82 79 78 77 83 80 81 77 64 63 50
156 163 144 66 41 150 219 181 166 101 30 72 215 282 309 71 104 128 145 149 151 148 146 133 124 119 111 101 90 92 94 88 83 86 89 81 83 86 86 75 77 73 54 43
183 115 18 314 113 7 171 156 102 11 134 238 275 252 226 198 191 169 165 160 159 146 135 136 133 129 113 106 101 91 91 98 96 92 92 92 90 86 84 77 68 56 41 37
105 101 186 133 205 172 150 188 157 125 143 161 168 255 219 197 183 179 172 168 162 152 150 142 137 132 121 109 104 103 101 104 97 99 99 96 89 81 77 74 68 56 42 26
108 108 140 202 230 268 118 203 155 164 214 152 158 264 193 198 182 172 171 163 156 155 152 148 144 139 133 125 119 121 117 112 112 108 101 94 93 87 81 74 63 56 46 34
173 114 89 15 354 333 213 205 172 112 83 197 145 255 310 150 151 170 163 163 157 154 154 157 150 150 146 136 126 126 114 114 111 104 102 95 90 89 83 68 53 44 34 28
99 139 163 185 194 143 192 193 186 141 125 179 225 209 222 177 171 168 170 162 162 163 167 164 160 162 154 150 144 140 128 121 116 107 102 100 94 90 85 78 62 42 24 27
125 191 171 73 129 149 192 180 167 193 218 187 234 198 216 199 186 187 172 162 163 170 172 172 171 164 159 153 146 142 137 130 126 119 111 105 101 90 85 69 49 35 34 22
73 178 114 112 10 128 132 196 199 211 219 247 209 265 198 197 147 164 176 169 178 182 179 177 173 166 166 159 154 148 138 131 124 119 113 112 109 100 64 46 30 25 16 8
152 144 100 253 2 88 337 213 192 222 216 216 225 238 151 179 184 182 179 184 189 187 179 179 176 171 165 162 154 150 143 133 128 127 130 121 99 74 51 37 27 16 5 346
177 190 152 232 27 226 241 157 187 203 215 223 244 263 180 191 200 189 190 188 190 185 183 180 172 165 159 150 144 137 138 138 135 131 123 108 95 79 53 36 23 1 352 336
41 131 143 159 189 285 259 221 181 169 247 193 226 232 200 171 96 250 204 198 191 189 185 174 165 156 145 149 145 140 142 139 137 139 128 110 93 83 53 24 350 322 339 308
57 42 122 144 165 212 286 176 150 87 261 204 217 221 182 142 194 234 198 197 186 173 168 159 153 145 145 152 147 146 150 149 145 139 123 112 101 82 82 271 311 309 314 314
132 109 201 165 219 276 223 142 134 154 249 197 195 211 187 194 218 239 141 147 152 148 147 145 149 152 151 146 145 148 148 154 141 125 115 107 89 109 177 14 344 290 290 296
176 170 188 133 176 256 153 58 174 214 316 166 233 210 189 191 108 132 142 142 146 144 149 154 149 149 149 151 150 153 159 143 133 132 122 97 88 61 68 93 298 297 315 340
202 194 191 190 223 75 308 18 105 138 129 0 328 9 153 142 154 130 136 143 150 151 150 150 145 138 142 146 154 152 153 143 140 111 100 115 104 125 202 146 305 327 359 1
290 295 144 79 309 297 282 352 337 23 49 353 329 269 169 156 153 133 136 141 146 148 148 142 141 146 151 153 143 126 140 136 122 121 132 134 125 98 82 317 279 292 323 318
203 115 148 284 255 245 255 232 250 181 89 357 348 292 222 157 170 160 154 157 156 151 145 154 155 155 158 145 131 132 143 135 131 135 135 128 122 103 16 328 249 247 248 214
187 169 175 215 215 100 325 330 347 34 350 237 222 234 184 192 167 150 160 159 155 155 151 151 151 148 150 147 145 143 144 143 141 141 134 130 118 108 85 236 279 307 309 322